Location: Unspecified
(40.7945°N, 0.0000°E)
Time: 10:07:28
(UTC+00:00)

Courier 1B - Pass Details

Date: 24 January 2021
Orbit: 962 x 1209 km, 28.3° (Epoch: 26 February)

Event Time Altitude Azimuth Distance (km) Brightness Sun altitude
Rises 22:00:21 0° 213° (SSW) 3,794 - -54.4°
Reaches altitude 10° 22:04:26 10° 191° (SSW) 2,792 - -55.1°
Maximum altitude 22:07:58 15° 159° (SSE) 2,416 - -55.7°
Drops below altitude 10° 22:11:26 10° 127° (SE) 2,725 - -56.2°
Sets 22:15:20 0° 105° (ESE) 3,649 - -56.8°
